Location: Bernadets
(43.3537°N, 0.3167°E)
Time: 04:08:39
(UTC+00:00)

Cosmos 2278 Rocket - Pass Details

Date: 24 October 2021
Orbit: 841 x 845 km, 71.0° (Epoch: 29 November)

Event Time Altitude Azimuth Distance (km) Brightness Sun altitude
Rises 19:29:06 0° 342° (NNW) 3,414 5.7 -27.5°
Reaches altitude 10° 19:31:53 10° 353° (N) 2,475 4.8 -28.0°
Enters shadow 19:34:15 21° 12° (NNE) 1,810 3.9 -28.4°
